Location: Westerlo
(51.0830°N, 4.9170°E)
Time: 21:28:05
(UTC+02:00)

ISS - Pass Details

Date: 25 April 2026
Orbit: 414 x 424 km, 51.6° (Epoch: 12 May)

Event Time Altitude Azimuth Distance (km) Brightness Sun altitude
Exits shadow 04:45:37 27° 206° (SSW) 848 -2.8 -14.0°
Maximum altitude 04:47:00 42° 154° (SSE) 614 -3.1 -13.8°
Drops below altitude 10° 04:50:12 10° 82° (E) 1,506 -0.1 -13.4°
Sets 04:52:22 0° 75° (ENE) 2,375 1.3 -13.2°
